Temp
-7 -7 -6 -6 -6 -6 -6 -6 -7 -7 -6 -6 -6 -5 -5 -5 -5 -5 -5 -5 -5 -5 -5 -5 -5 -4 -4 -5 -5 -5 -5 -4 -4 -4 -4 -4 -4 -4 -5 -4 -4 -4 -4 -5 -5
-7 -7 -6 -6 -6 -6 -6 -7 -7 -6 -6 -6 -6 -5 -5 -5 -5 -5 -5 -5 -5 -5 -5 -4 -4 -4 -4 -5 -5 -5 -5 -5 -4 -4 -4 -4 -4 -4 -5 -5 -4 -3 -4 -4 -4
-7 -7 -6 -6 -6 -6 -6 -7 -7 -6 -6 -6 -5 -5 -5 -5 -6 -5 -5 -4 -5 -5 -5 -4 -5 -4 -4 -5 -5 -4 -5 -5 -4 -4 -4 -4 -4 -4 -4 -4 -4 -4 -4 -4 -4
-7 -7 -6 -6 -6 -6 -6 -7 -6 -6 -6 -6 -5 -5 -5 -6 -5 -5 -4 -4 -5 -4 -4 -5 -4 -4 -4 -4 -5 -5 -4 -5 -4 -5 -5 -4 -4 -4 -4 -4 -4 -4 -4 -4 -4
-7 -7 -6 -6 -6 -6 -7 -7 -7 -6 -6 -5 -5 -5 -6 -5 -5 -5 -4 -5 -5 -5 -4 -4 -4 -4 -4 -4 -5 -5 -4 -5 -6 -6 -5 -5 -4 -4 -4 -4 -4 -4 -4 -4 -4
-7 -7 -7 -6 -6 -6 -7 -7 -7 -6 -6 -5 -5 -5 -6 -5 -5 -5 -5 -5 -5 -5 -4 -4 -4 -4 -4 -4 -4 -5 -5 -5 -5 -5 -5 -5 -5 -5 -5 -4 -4 -4 -4 -4 -4
-7 -7 -7 -6 -6 -6 -7 -7 -6 -6 -5 -5 -5 -5 -6 -5 -5 -5 -5 -5 -4 -5 -5 -5 -4 -4 -5 -4 -4 -5 -4 -4 -4 -5 -5 -5 -5 -4 -5 -5 -5 -4 -4 -4 -4
-7 -7 -7 -7 -6 -6 -7 -7 -6 -6 -5 -5 -5 -5 -5 -5 -5 -5 -4 -5 -4 -5 -5 -4 -4 -4 -4 -5 -4 -4 -4 -4 -5 -5 -5 -5 -5 -4 -4 -5 -5 -5 -5 -5 -5
-7 -7 -7 -7 -6 -6 -7 -6 -6 -6 -5 -5 -5 -5 -5 -5 -5 -5 -4 -5 -5 -5 -5 -5 -5 -5 -4 -4 -4 -4 -4 -4 -5 -5 -5 -5 -5 -5 -5 -5 -6 -6 -5 -5 -4
-7 -6 -6 -6 -6 -6 -7 -6 -6 -5 -5 -5 -5 -5 -5 -5 -4 -4 -4 -5 -5 -5 -4 -5 -6 -6 -5 -5 -4 -4 -4 -4 -4 -4 -5 -5 -5 -5 -5 -6 -6 -6 -6 -6 -5
-7 -6 -6 -6 -6 -6 -6 -6 -6 -6 -5 -5 -5 -5 -5 -5 -5 -5 -4 -5 -5 -5 -5 -5 -6 -5 -5 -5 -4 -5 -4 -5 -5 -5 -5 -5 -6 -5 -5 -5 -5 -5 -6 -6 -6
-7 -6 -6 -6 -6 -6 -6 -6 -6 -6 -6 -5 -4 -4 -5 -5 -5 -5 -5 -5 -5 -4 -5 -6 -5 -5 -5 -5 -5 -5 -5 -5 -5 -5 -5 -6 -6 -5 -5 -5 -5 -5 -5 -5 -5
-7 -6 -6 -6 -6 -5 -5 -6 -6 -6 -6 -5 -5 -5 -5 -5 -5 -5 -5 -5 -5 -4 -5 -6 -6 -5 -5 -5 -5 -5 -6 -6 -6 -6 -5 -5 -6 -6 -6 -6 -5 -5 -5 -5 -5
-7 -6 -6 -6 -6 -6 -6 -6 -6 -6 -6 -5 -5 -5 -4 -5 -5 -5 -5 -5 -5 -4 -5 -6 -6 -5 -5 -5 -6 -6 -6 -6 -6 -5 -5 -6 -6 -6 -6 -6 -6 -5 -5 -5 -5
-7 -7 -6 -6 -6 -6 -6 -6 -6 -6 -6 -5 -5 -5 -4 -4 -4 -4 -4 -4 -4 -4 -5 -5 -5 -5 -5 -6 -6 -6 -6 -6 -5 -5 -5 -6 -6 -6 -6 -6 -6 -6 -5 -5 -4
-7 -7 -7 -7 -6 -6 -6 -6 -6 -6 -6 -5 -5 -4 -4 -4 -4 -4 -4 -4 -4 -4 -5 -5 -5 -5 -5 -6 -6 -6 -6 -5 -5 -6 -6 -6 -6 -6 -6 -6 -6 -6 -6 -6 -5
-7 -7 -7 -7 -7 -6 -6 -7 -6 -6 -6 -5 -5 -4 -5 -5 -4 -4 -4 -4 -4 -4 -4 -4 -4 -5 -5 -7 -6 -6 -6 -5 -5 -5 -6 -6 -6 -7 -6 -6 -6 -6 -6 -6 -6
-7 -7 -8 -8 -7 -7 -7 -6 -6 -5 -5 -5 -5 -5 -5 -5 -5 -5 -5 -5 -5 -4 -4 -5 -6 -6 -6 -6 -6 -6 -6 -6 -5 -5 -6 -6 -6 -6 -7 -7 -7 -7 -6 -6 -6
-8 -8 -8 -8 -8 -7 -7 -6 -6 -6 -6 -5 -5 -5 -5 -5 -5 -5 -5 -5 -5 -5 -5 -5 -6 -6 -6 -6 -6 -6 -6 -6 -6 -6 -6 -6 -6 -6 -7 -7 -7 -7 -7 -6 -5
-8 -8 -8 -8 -8 -8 -7 -7 -6 -6 -6 -6 -5 -5 -6 -6 -6 -6 -6 -6 -6 -6 -6 -6 -7 -7 -7 -7 -7 -6 -6 -6 -6 -6 -6 -6 -6 -7 -7 -7 -7 -7 -7 -7 -6
-8 -8 -8 -8 -8 -8 -8 -8 -7 -6 -7 -6 -6 -6 -6 -6 -6 -5 -6 -6 -7 -6 -7 -7 -7 -7 -7 -7 -7 -7 -7 -6 -6 -6 -6 -6 -6 -7 -7 -7 -7 -7 -7 -6 -6
-7 -7 -8 -8 -8 -8 -8 -8 -7 -7 -6 -6 -6 -6 -6 -6 -6 -6 -7 -7 -7 -7 -7 -7 -7 -7 -7 -7 -6 -6 -6 -6 -6 -6 -6 -6 -5 -6 -6 -6 -6 -6 -6 -6 -6
-7 -7 -8 -7 -8 -8 -7 -7 -7 -7 -7 -7 -6 -6 -7 -6 -6 -7 -7 -7 -7 -7 -7 -6 -6 -6 -7 -7 -6 -6 -6 -6 -6 -6 -5 -5 -5 -6 -6 -6 -6 -5 -6 -6 -6
-7 -7 -7 -7 -7 -7 -7 -7 -7 -7 -7 -7 -7 -6 -6 -7 -7 -7 -7 -7 -7 -7 -7 -6 -6 -6 -6 -6 -6 -6 -6 -6 -6 -6 -6 -5 -5 -6 -5 -5 -6 -6 -6 -6 -6
-7 -6 -7 -7 -7 -8 -8 -8 -7 -7 -7 -7 -6 -6 -6 -7 -7 -7 -7 -7 -8 -8 -8 -7 -6 -6 -6 -6 -6 -6 -6 -7 -6 -6 -6 -5 -5 -5 -5 -5 -5 -5 -6 -6 -6
-7 -7 -7 -7 -8 -8 -8 -7 -7 -7 -7 -7 -7 -7 -7 -6 -6 -6 -6 -6 -6 -6 -7 -6 -6 -6 -5 -6 -6 -5 -6 -6 -6 -6 -5 -5 -5 -6 -6 -5 -5 -6 -6 -6 -6
-7 -7 -7 -7 -8 -8 -8 -8 -7 -7 -7 -7 -7 -7 -7 -7 -6 -6 -7 -7 -7 -6 -6 -6 -6 -5 -5 -6 -5 -5 -6 -6 -6 -6 -5 -5 -5 -5 -6 -6 -6 -6 -6 -6 -7
Height
5882 5881 5882 5883 5886 5889 5892 5893 5895 5898 5902 5907 5910 5913 5916 5919 5921 5923 5924 5924 5925 5925 5924 5923 5922 5922 5922 5925 5927 5928 5928 5928 5927 5927 5926 5921 5921 5921 5921 5923 5924 5924 5924 5924 5924
5882 5881 5882 5884 5887 5890 5892 5894 5897 5900 5904 5909 5912 5915 5918 5920 5922 5923 5924 5924 5925 5925 5925 5922 5923 5923 5924 5927 5928 5928 5929 5929 5930 5929 5928 5927 5924 5922 5921 5922 5924 5924 5924 5924 5924
5881 5881 5882 5885 5888 5891 5894 5896 5898 5902 5907 5911 5914 5916 5919 5922 5923 5923 5924 5926 5927 5927 5926 5924 5923 5924 5926 5929 5929 5930 5932 5931 5931 5930 5930 5929 5927 5925 5924 5924 5924 5925 5926 5926 5926
5882 5881 5882 5886 5889 5892 5895 5897 5900 5904 5909 5913 5914 5916 5919 5922 5924 5924 5926 5928 5928 5927 5925 5924 5925 5927 5928 5929 5930 5932 5933 5935 5935 5932 5931 5931 5929 5928 5927 5928 5926 5926 5926 5926 5927
5881 5881 5882 5886 5889 5893 5896 5899 5902 5907 5911 5913 5915 5918 5921 5923 5924 5925 5927 5929 5929 5926 5924 5925 5927 5930 5930 5930 5931 5933 5934 5935 5934 5933 5931 5931 5931 5930 5929 5928 5928 5927 5926 5927 5928
5881 5881 5883 5886 5890 5894 5897 5900 5904 5909 5912 5913 5916 5920 5922 5924 5925 5926 5929 5929 5929 5925 5921 5926 5928 5931 5932 5932 5932 5932 5933 5933 5934 5932 5933 5932 5932 5931 5929 5928 5928 5927 5927 5927 5928
5881 5881 5883 5886 5891 5895 5898 5902 5906 5910 5912 5914 5918 5921 5923 5925 5926 5928 5930 5932 5930 5927 5927 5930 5932 5933 5932 5931 5931 5933 5933 5934 5933 5932 5933 5932 5932 5931 5930 5927 5927 5928 5928 5927 5927
5881 5882 5884 5887 5891 5896 5899 5903 5907 5911 5913 5916 5920 5923 5925 5925 5927 5929 5931 5932 5932 5932 5932 5932 5934 5933 5932 5931 5931 5932 5933 5934 5933 5933 5932 5932 5932 5931 5931 5929 5929 5928 5929 5928 5927
5881 5883 5885 5888 5892 5897 5900 5904 5909 5912 5914 5917 5921 5924 5926 5927 5929 5929 5930 5932 5933 5935 5934 5934 5935 5935 5935 5935 5935 5934 5935 5935 5936 5935 5933 5932 5932 5931 5931 5930 5931 5931 5930 5931 5930
5881 5884 5887 5890 5894 5898 5901 5905 5910 5914 5915 5919 5922 5926 5928 5929 5930 5931 5931 5933 5934 5936 5935 5934 5935 5936 5937 5937 5937 5937 5938 5938 5938 5937 5935 5933 5933 5932 5933 5933 5933 5931 5932 5931 5931
5880 5884 5887 5891 5895 5899 5903 5907 5913 5917 5917 5919 5923 5925 5928 5930 5931 5933 5934 5933 5935 5934 5934 5934 5936 5937 5939 5939 5941 5940 5940 5940 5940 5939 5937 5936 5936 5935 5934 5934 5933 5933 5933 5933 5932
5880 5883 5887 5891 5895 5899 5904 5908 5912 5916 5917 5919 5922 5926 5929 5930 5932 5933 5935 5936 5935 5935 5934 5936 5938 5940 5940 5941 5943 5942 5941 5941 5941 5940 5940 5939 5939 5937 5937 5936 5936 5935 5935 5934 5933
5879 5883 5886 5891 5895 5900 5905 5908 5911 5914 5917 5919 5922 5926 5929 5931 5932 5933 5934 5935 5936 5936 5936 5938 5939 5940 5940 5940 5942 5942 5942 5941 5942 5942 5942 5941 5941 5940 5939 5938 5938 5938 5937 5935 5934
5878 5882 5886 5891 5897 5900 5903 5907 5910 5914 5917 5921 5922 5926 5929 5930 5932 5933 5935 5936 5936 5937 5937 5939 5940 5940 5940 5941 5941 5942 5942 5943 5943 5944 5944 5944 5944 5943 5941 5941 5940 5939 5938 5936 5935
5877 5881 5886 5891 5894 5898 5903 5906 5910 5914 5917 5921 5923 5925 5927 5929 5932 5933 5934 5935 5936 5937 5939 5940 5939 5940 5940 5940 5940 5942 5943 5943 5944 5945 5945 5945 5946 5944 5944 5942 5941 5940 5938 5937 5935
5876 5880 5885 5889 5893 5897 5901 5906 5910 5915 5917 5920 5923 5924 5926 5928 5930 5932 5934 5935 5936 5937 5938 5939 5939 5938 5940 5940 5941 5942 5943 5944 5945 5945 5946 5946 5946 5945 5945 5944 5942 5940 5938 5937 5935
5876 5880 5884 5888 5892 5896 5901 5905 5909 5912 5917 5920 5922 5923 5925 5926 5929 5931 5934 5935 5936 5937 5937 5938 5937 5937 5939 5940 5942 5942 5944 5945 5946 5945 5945 5945 5946 5945 5944 5944 5942 5941 5939 5937 5934
5876 5880 5884 5887 5891 5895 5900 5904 5907 5911 5915 5918 5920 5923 5925 5927 5929 5931 5932 5934 5935 5935 5936 5936 5937 5937 5938 5940 5942 5942 5943 5943 5943 5943 5943 5942 5943 5944 5942 5941 5939 5938 5937 5934 5932
5875 5880 5883 5887 5890 5894 5899 5902 5904 5909 5915 5918 5920 5922 5924 5927 5930 5931 5932 5934 5934 5935 5938 5937 5938 5939 5939 5940 5941 5941 5941 5941 5940 5940 5940 5941 5941 5941 5939 5937 5936 5935 5933 5931 5928
5874 5879 5883 5886 5889 5893 5897 5900 5904 5909 5914 5917 5919 5922 5924 5926 5928 5930 5932 5933 5934 5936 5937 5938 5938 5938 5938 5939 5939 5939 5940 5939 5938 5937 5936 5936 5936 5935 5933 5932 5931 5930 5929 5927 5924
5873 5879 5883 5886 5889 5893 5896 5900 5904 5908 5912 5916 5919 5921 5923 5926 5928 5929 5932 5933 5934 5936 5936 5937 5938 5938 5938 5938 5937 5937 5936 5936 5935 5934 5932 5931 5932 5929 5928 5927 5926 5925 5924 5921 5918
5873 5878 5882 5885 5889 5893 5896 5900 5904 5907 5912 5915 5918 5920 5923 5925 5927 5928 5931 5933 5934 5934 5935 5935 5936 5936 5936 5933 5932 5932 5932 5932 5931 5929 5927 5924 5926 5924 5924 5922 5919 5918 5916 5914 5911
5871 5877 5881 5884 5888 5892 5896 5900 5904 5907 5911 5914 5917 5920 5922 5924 5927 5928 5930 5932 5933 5932 5932 5934 5934 5934 5932 5932 5929 5928 5928 5927 5925 5923 5921 5919 5918 5917 5915 5913 5913 5911 5909 5906 5903
5869 5874 5879 5884 5887 5891 5896 5900 5904 5908 5911 5914 5917 5919 5920 5922 5924 5926 5928 5929 5929 5928 5928 5929 5929 5929 5929 5927 5926 5925 5923 5921 5920 5918 5915 5915 5911 5913 5910 5907 5905 5902 5900 5898 5895
5868 5873 5879 5882 5886 5891 5895 5900 5903 5907 5910 5913 5916 5917 5919 5920 5921 5923 5924 5925 5925 5925 5924 5924 5924 5924 5924 5923 5922 5922 5919 5917 5915 5913 5910 5910 5908 5906 5903 5900 5899 5897 5894 5891 5887
5868 5872 5876 5881 5884 5889 5894 5898 5902 5905 5908 5912 5913 5915 5916 5918 5920 5920 5920 5920 5920 5920 5920 5919 5919 5918 5919 5918 5916 5917 5915 5912 5910 5909 5907 5905 5903 5900 5897 5894 5891 5888 5885 5882 5878
5866 5870 5874 5878 5883 5888 5892 5896 5899 5902 5905 5907 5909 5911 5912 5914 5916 5917 5917 5916 5915 5915 5914 5914 5914 5913 5913 5913 5910 5912 5909 5908 5906 5904 5901 5897 5896 5893 5890 5886 5882 5879 5875 5871 5868
Wind_Speed
0 2 4 9 13 14 16 20 22 23 22 20 18 17 15 12 11 10 11 9 11 10 7 6 10 9 5 7 11 10 6 14 13 11 13 19 18 16 12 8 8 7 9 8 7
1 3 5 10 15 16 18 22 24 24 22 19 17 15 13 12 10 10 11 13 10 8 6 6 9 9 8 6 7 8 16 10 14 8 11 12 16 15 14 9 5 6 6 6 5
1 3 6 13 16 17 20 25 26 24 21 17 15 13 13 12 10 10 12 11 8 6 6 7 10 10 10 9 8 16 16 10 10 13 10 10 12 12 10 9 6 4 4 4 5
2 3 7 15 18 19 24 26 25 22 20 17 14 15 14 11 11 11 11 9 7 5 4 6 6 7 11 9 10 8 10 13 13 17 13 11 8 8 8 5 5 4 4 3 4
3 4 9 17 20 22 27 26 23 21 20 18 16 15 12 11 13 11 10 7 4 3 3 5 0 7 8 8 5 4 10 11 12 10 8 5 8 8 7 5 3 3 2 1 3
4 5 11 19 22 25 27 25 23 22 21 18 15 13 12 13 13 10 9 10 10 12 12 17 9 5 6 5 6 5 6 8 8 8 9 9 7 9 9 8 4 2 4 4 3
6 7 12 20 24 28 27 25 24 23 20 16 15 14 16 16 12 9 11 10 10 22 15 13 12 6 5 5 3 10 6 6 1 1 7 4 7 4 7 8 7 4 5 5 6
7 9 15 21 27 31 28 25 23 22 18 15 16 17 17 13 10 9 10 11 13 11 14 10 8 9 10 10 11 11 5 4 7 8 7 10 6 7 4 7 6 5 5 6 6
9 11 17 24 31 30 27 25 23 20 17 15 15 15 16 14 11 10 11 7 5 6 9 8 8 8 9 11 11 11 8 6 7 9 7 4 2 3 7 11 10 5 3 4 6
11 13 20 26 29 28 26 23 22 19 14 12 14 14 13 11 9 10 10 6 7 5 6 7 4 3 6 10 10 11 8 5 2 5 5 4 8 8 6 7 5 3 1 0 1
12 15 21 26 27 26 24 22 19 16 12 10 13 14 15 13 8 10 7 2 1 3 3 5 4 5 6 6 11 12 8 5 2 4 7 8 9 8 7 7 5 7 9 3 2
14 16 20 27 27 26 23 20 18 16 14 13 13 16 17 11 10 8 6 3 2 4 6 6 4 4 6 4 7 5 8 7 5 6 10 11 10 12 12 9 9 10 10 10 9
15 17 19 26 28 26 23 22 20 18 16 13 15 18 18 12 9 7 6 4 5 2 6 3 1 4 4 3 2 1 3 3 4 7 8 10 12 10 9 6 4 4 3 5 6
16 17 18 23 26 27 26 24 21 19 17 15 14 15 15 15 11 8 7 6 4 3 5 5 3 3 3 3 6 1 3 3 5 4 4 4 8 7 5 3 4 3 4 6 4
16 16 17 23 26 27 26 24 22 20 18 17 14 11 9 9 9 8 8 7 7 7 8 8 7 8 6 2 1 6 5 5 5 5 5 4 4 3 2 2 3 4 7 3 3
17 17 17 23 27 27 25 23 23 20 17 15 13 9 7 7 8 8 8 7 6 7 9 9 8 9 5 3 6 7 6 5 3 2 6 5 5 3 6 1 5 6 5 10 10
18 20 21 25 27 27 25 24 22 21 19 16 13 11 9 8 9 8 7 5 4 6 6 7 7 8 8 7 6 7 9 5 5 3 6 6 2 6 9 7 6 8 7 8 13
21 23 24 24 25 26 25 24 24 23 20 17 15 15 14 14 11 8 7 4 2 2 4 4 6 7 6 7 7 9 9 11 11 6 8 8 9 8 10 12 13 14 14 12 11
24 26 25 23 24 24 26 27 26 23 18 16 18 17 16 15 12 11 7 4 5 5 6 5 6 4 6 7 11 11 12 12 14 16 12 13 14 12 14 17 19 20 19 16 15
27 26 21 21 24 27 29 28 25 20 18 19 21 21 20 17 14 12 9 7 5 6 8 7 7 9 10 11 13 14 13 14 17 19 18 17 13 10 12 15 16 17 17 17 21
29 28 23 23 25 25 27 26 23 20 21 23 20 21 18 15 13 11 10 9 9 9 10 10 10 12 13 15 17 17 18 18 19 18 21 23 16 12 16 15 15 17 19 23 26
30 28 24 25 24 28 28 26 22 22 20 19 21 20 17 9 7 11 15 11 12 9 10 13 9 11 12 16 16 13 15 16 17 20 22 25 18 18 14 15 18 19 21 24 27
32 30 28 27 26 30 31 24 22 23 22 20 20 18 16 11 9 13 14 12 11 12 12 9 9 11 12 15 18 17 16 17 19 21 23 25 26 24 26 24 22 22 24 27 30
31 32 31 29 25 31 27 22 23 24 20 21 20 19 16 14 12 10 10 12 11 10 10 11 8 9 12 16 17 16 19 21 22 24 25 22 25 22 23 25 26 28 29 28 30
30 31 29 26 27 28 28 23 22 21 20 20 22 18 16 15 12 9 9 12 14 16 16 16 16 14 14 17 17 12 15 21 24 23 24 24 25 26 28 30 29 30 33 34 35
30 34 29 29 30 30 28 25 22 19 19 19 20 21 19 16 10 9 11 10 13 14 16 18 19 19 15 19 20 10 9 20 21 22 25 28 29 30 33 36 37 37 38 38 38
30 37 34 31 32 31 29 26 23 20 18 15 17 17 18 17 11 9 11 14 13 16 18 19 21 22 19 19 22 15 17 23 25 26 31 34 35 35 36 38 39 39 38 37 38
Wind_Direction
35 100 131 163 163 159 157 152 147 149 146 140 135 128 125 120 113 103 89 99 100 90 76 67 61 48 103 102 54 63 115 68 73 89 92 107 108 112 107 95 99 106 103 94 85
166 119 147 163 159 159 158 150 148 150 145 141 135 130 125 124 110 96 110 124 116 104 92 71 73 59 98 121 53 64 103 79 74 79 99 100 108 111 113 110 121 135 118 110 122
183 133 154 164 158 160 155 148 150 151 144 143 139 138 132 127 111 115 134 123 110 97 66 49 78 64 82 103 70 79 77 71 84 81 81 98 108 106 110 124 122 114 96 102 124
181 138 161 166 160 161 153 151 154 150 143 138 140 135 136 124 122 127 132 125 115 111 50 50 52 104 85 89 87 80 70 73 93 85 75 63 84 100 123 121 131 118 102 107 140
178 145 167 168 161 159 155 155 154 145 138 136 140 138 129 127 129 127 131 109 68 356 319 161 233 132 93 102 80 56 33 78 89 70 63 63 86 104 107 116 156 156 114 156 150
173 147 169 170 161 159 156 154 148 143 137 142 134 127 120 133 143 128 83 86 78 64 103 130 117 138 73 90 60 88 75 87 103 106 69 91 121 112 118 123 122 132 145 165 158
168 153 168 172 165 159 155 153 147 143 142 141 129 124 130 138 134 126 110 98 65 78 103 114 102 86 44 49 19 126 77 61 312 156 208 207 189 160 107 108 121 129 112 135 150
167 155 164 166 163 158 156 154 150 144 144 137 126 125 134 135 127 128 116 92 86 72 80 91 87 61 55 64 95 135 110 51 117 102 78 152 154 135 129 112 109 121 140 143 123
166 156 161 160 157 157 157 158 150 144 144 139 126 131 142 150 147 142 113 88 77 102 85 67 45 62 60 70 104 134 145 130 107 87 80 73 60 12 144 122 103 79 77 106 124
168 159 162 160 159 160 163 161 150 146 147 142 136 136 138 155 159 147 118 114 87 94 88 48 36 101 94 86 98 111 120 118 90 106 105 65 108 105 121 121 131 127 184 310 19
169 165 170 166 167 167 169 161 151 149 150 144 136 135 133 139 137 141 139 136 137 25 68 66 111 141 108 90 103 106 114 139 167 99 96 106 117 81 98 132 145 114 117 126 90
172 171 175 174 173 172 167 161 163 161 156 146 146 145 140 143 139 142 164 194 236 63 66 82 87 85 107 111 118 107 113 115 102 121 118 117 121 102 94 95 90 92 96 99 97
174 175 177 180 176 171 169 173 173 167 158 143 137 138 140 149 147 158 189 205 219 170 80 94 49 87 19 10 28 358 149 129 129 134 133 128 122 115 100 74 46 107 114 97 97
177 174 175 182 177 174 177 179 174 171 163 153 148 148 151 151 157 178 193 176 208 199 129 158 184 274 306 314 328 69 178 154 106 147 122 150 123 121 140 90 19 345 154 152 140
175 169 170 175 177 179 180 178 175 174 168 169 169 161 159 156 150 153 163 159 148 154 166 185 223 250 278 347 74 170 163 187 185 268 234 187 196 163 54 351 19 340 310 266 211
168 162 166 172 176 181 180 176 178 177 176 175 177 171 162 161 161 154 161 159 162 177 190 210 235 255 264 133 126 150 167 168 181 22 204 219 222 284 247 302 359 347 301 297 288
164 160 163 169 174 178 179 179 180 183 178 176 174 174 170 175 159 161 159 153 193 221 210 213 230 226 187 170 181 187 186 233 276 229 227 252 265 266 293 262 320 328 316 309 279
163 158 160 167 173 174 177 181 186 188 186 179 172 172 164 161 157 168 189 210 233 246 231 217 171 177 173 194 220 225 245 280 289 279 267 274 276 282 290 304 308 318 316 316 279
162 158 160 169 174 175 180 186 193 191 183 177 175 167 166 158 164 183 202 220 238 247 227 203 193 224 238 236 249 264 270 275 283 297 301 307 297 301 309 303 306 309 315 315 308
167 162 165 173 178 181 183 189 193 189 180 173 173 165 160 165 183 198 216 232 227 223 242 232 219 237 255 266 274 290 289 286 292 295 302 312 318 296 295 297 296 303 318 316 310
177 171 175 179 183 184 187 192 190 182 178 176 176 173 180 194 213 227 206 207 210 222 225 234 240 248 263 268 277 284 284 279 289 297 302 309 315 299 305 306 297 297 307 308 306
183 180 184 193 191 190 189 190 189 187 174 179 176 176 173 177 214 201 195 202 212 230 241 224 232 231 267 273 286 283 282 288 293 300 302 307 315 311 306 296 297 300 302 302 300
191 190 193 200 195 197 193 195 190 174 174 179 185 180 180 169 179 183 202 204 224 260 268 234 225 238 262 281 282 284 288 288 294 303 308 310 319 325 320 314 304 296 299 302 301
189 189 193 199 201 202 197 204 196 196 194 192 193 196 191 192 190 193 207 230 253 269 276 261 260 259 256 271 272 288 297 296 297 299 303 319 313 325 313 309 309 310 310 308 304
188 187 194 199 208 204 205 206 205 203 201 203 211 210 213 213 217 243 266 276 277 278 282 280 269 263 255 271 278 288 289 291 290 299 301 310 314 313 309 306 307 307 306 304 301
189 189 196 200 208 208 211 212 212 210 215 217 226 229 242 247 254 290 296 286 279 277 273 274 279 279 275 276 283 295 281 273 284 290 297 303 306 303 304 306 307 305 302 299 295
191 194 199 206 210 212 216 218 219 227 238 247 251 249 258 269 274 275 289 288 277 263 265 269 274 276 276 271 275 279 263 275 290 298 301 300 305 306 303 301 299 298 297 294 293